[[{"header":{"parameterUnit":"m.s-1","parameterCategory":1,"la1":30.2991,"la2":30.254,"lo1":-89.0895,"lo2":-89.0444,"dy":0.0017,"dx":0.0017,"nx":28,"ny":28,"refTime":"2025-05-24T21:00:00:Z","depth":0,"parameterNumber":2,"parameterNumberName":"U-component_of_WINDS"},"data":[0,0,0,0,0,0,0,0,0,0,0,0,0,0,0,0,0,0,0,0,0,0,0,0,0,0,0,0,0,0,0,0,0,0,0,0,0,0,0,0,0,0,0,0,0,0,0,0,0,0,0,0,0,0,0,0,0,0,0.8476,0.8476,0,0.856,0.8561,0.8562,0.8616,0.8616,0.8617,0.8617,0.8705,0.8707,0.8709,0,0,0,0,0,0,0,0,0,0,0,0,0,0.8362,0.8364,0.8475,0.8477,0.8478,0.856,0.8561,0.8562,0.8616,0.8617,0.8617,0.8617,0.8704,0.8707,0.8709,0,0,0,0,0,0,0,0,0,0,0,0,0,0.8425,0.8364,0.8475,0.8514,0.8519,0.856,0.8561,0.8563,0.8616,0.8617,0.8617,0.8617,0.8704,0.8707,0.871,0.8719,0,0,0.8719,0.872,0,0,0,0,0,0,0,0,0.8422,0.8429,0.8508,0.8512,0.8517,0.8578,0.8553,0.8615,0.8616,0.8579,0.8617,0.8618,0.8663,0.8669,0.8684,0.8723,0.8727,0.8719,0.8721,0.8722,0.8723,0,0,0,0,0,0,0,0.8417,0.8426,0.8509,0.8509,0.8514,0.8528,0.8538,0.8565,0.8617,0.8582,0.8586,0.8596,0.8665,0.8681,0.8686,0.8728,0.8719,0.8722,0.8724,0.8725,0.878,0.8779,0,0,0,0,0,0,0.8406,0.8422,0.8506,0.8512,0.8469,0.853,0.854,0.8558,0.8617,0.8626,0.8595,0.8598,0.8675,0.8683,0.869,0.8705,0.8722,0.8725,0.8727,0.878,0.878,0.8779,0,0,0,0,0,0,0.8404,0.8413,0.8503,0.8468,0.848,0.8531,0.855,0.8559,0.8575,0.8627,0.8636,0.8602,0.8676,0.8685,0.8711,0.8709,0.8727,0.873,0.878,0.878,0.8779,0.8735,0,0,0,0,0,0,0.84,0.8412,0.8416,0.8468,0.8482,0.8522,0.855,0.8561,0.858,0.8584,0.8635,0.8644,0.8677,0.8706,0.8714,0.8713,0.8732,0.8781,0.878,0.878,0.8736,0.8732,0.8729,0,0,0,0,0,0.8396,0.84,0.8416,0.8426,0.8488,0.8522,0.853,0.8568,0.8579,0.8584,0.8617,0.8642,0.8707,0.8709,0.8718,0.8718,0.8781,0.878,0.878,0.8738,0.8733,0.8729,0,0,0,0,0,0,0.8347,0.8408,0.8426,0.8446,0.8479,0.8531,0.8538,0.8562,0.8592,0.8594,0.864,0.8651,0.8673,0.8698,0.8698,0.873,0.8747,0.8748,0.8713,0.8708,0.8705,0.8699,0.8734,0,0,0,0,0,0.8338,0.8361,0.8413,0.8426,0.8442,0.8487,0.8503,0.8529,0.8565,0.8579,0.8614,0.8648,0.8676,0.8694,0.8722,0.874,0.8753,0.8745,0.8741,0.8738,0.8738,0.875,0.8747,0.8776,0.8776,0.8776,0,0,0.8321,0.8357,0.8369,0.8417,0.8445,0.8468,0.8498,0.8521,0.8538,0.8582,0.8609,0.8636,0.8677,0.8699,0.871,0.872,0.8733,0.8737,0.8734,0.8736,0.8749,0.8746,0.8744,0.8776,0.8776,0.8776,0,0,0.8302,0.8331,0.8346,0.8373,0.8415,0.8445,0.8448,0.8498,0.8517,0.8544,0.8578,0.86,0.8647,0.8675,0.8695,0.8686,0.8711,0.8694,0.8675,0.8686,0.8684,0.8682,0.8679,0.8678,0.8695,0.8694,0.8694,0,0.8275,0.8311,0.835,0.8371,0.8392,0.8432,0.8447,0.8472,0.8522,0.8535,0.8546,0.8606,0.8636,0.8666,0.8663,0.8678,0.8684,0.8689,0.8681,0.868,0.8679,0.8676,0.8675,0.8692,0.8692,0.8693,0.8693,0,0.8276,0.83,0.8307,0.8353,0.8375,0.8393,0.8435,0.8452,0.8476,0.8505,0.8533,0.857,0.8608,0.8616,0.864,0.8649,0.8654,0.8672,0.8691,0.8673,0.8672,0.8671,0.8689,0.869,0.869,0.8691,0,0,0.8228,0.8296,0.8298,0.832,0.8369,0.8389,0.8409,0.8445,0.8458,0.8491,0.8509,0.8548,0.8565,0.8588,0.8616,0.8625,0.8616,0.8642,0.8644,0.8637,0.8629,0.8616,0.8614,0.8633,0.8633,0.8633,0.8626,0,0.8217,0.8254,0.829,0.8315,0.8338,0.8377,0.8395,0.8427,0.8455,0.8478,0.8509,0.8536,0.8556,0.8571,0.8582,0.8615,0.8616,0.8616,0.8651,0.8652,0.864,0.8613,0.8599,0.8591,0.8626,0.8626,0.8626,0,0.8208,0.8239,0.8266,0.8313,0.8324,0.8339,0.8375,0.8397,0.8435,0.8455,0.848,0.8509,0.8532,0.8548,0.8581,0.8581,0.8597,0.8616,0.8616,0.8621,0.8638,0.8618,0.8589,0.8588,0.8625,0.8625,0.8625,0,0.8171,0.8219,0.8242,0.8259,0.8315,0.8324,0.8348,0.8386,0.8406,0.8437,0.845,0.8484,0.8503,0.8529,0.8566,0.8574,0.8596,0.8615,0.8613,0.8612,0.8617,0.8616,0.859,0.8626,0.8626,0.8626,0.8626,0,0.8154,0.817,0.8226,0.824,0.8258,0.8299,0.8316,0.8344,0.8377,0.8397,0.8433,0.8451,0.8499,0.8524,0.8553,0.8577,0.8585,0.8602,0.8609,0.8599,0.8596,0.861,0.8612,0.8626,0.8626,0.8626,0.8626,0,0.8116,0.8154,0.8182,0.8232,0.8245,0.8256,0.83,0.8315,0.8345,0.837,0.8378,0.8425,0.8455,0.8495,0.8538,0.8558,0.8578,0.8589,0.8565,0.8569,0.8566,0.8566,0.8549,0.8549,0.8584,0.8583,0.8583,0,0.8103,0.8116,0.8168,0.8184,0.8206,0.8231,0.8251,0.8293,0.8312,0.8356,0.8366,0.8399,0.8427,0.8474,0.8512,0.8545,0.8558,0.855,0.8564,0.8553,0.8559,0.8558,0.856,0.8547,0.8546,0.8546,0.8545,0,0.8077,0.8095,0.8122,0.8156,0.8179,0.8208,0.8238,0.8249,0.8297,0.8317,0.8348,0.837,0.8414,0.8446,0.8484,0.8509,0.8535,0.8541,0.8542,0.8532,0.8517,0.8525,0.8556,0.8541,0.8541,0.8542,0.8542,0.8542,0.8052,0.8065,0.8103,0.8132,0.8159,0.8187,0.8204,0.8235,0.8262,0.83,0.8323,0.8354,0.8391,0.8445,0.8469,0.8494,0.8504,0.8506,0.8507,0.8507,0.8503,0.8512,0.8501,0.8501,0.8501,0.8501,0.8502,0,0.8027,0.8054,0.808,0.8121,0.8144,0.8166,0.8201,0.8219,0.8245,0.8278,0.8305,0.8341,0.8373,0.8413,0.8448,0.846,0.8473,0.8468,0.8468,0.8473,0.8492,0.8488,0.8457,0.8457,0.8457,0.8457,0.8457,0.8457,0.8017,0.8041,0.8063,0.8101,0.8128,0.8157,0.8175,0.8201,0.8228,0.8266,0.8292,0.8318,0.8354,0.8392,0.8422,0.8433,0.8444,0.8436,0.845,0.8468,0.8472,0.8475,0.8471,0.8438,0.8438,0.8429,0.8429,0.8429]},{"header":{"parameterUnit":"m.s-1","parameterCategory":1,"la1":30.2991,"la2":30.254,"lo1":-89.0895,"lo2":-89.0444,"dy":0.0017,"dx":0.0017,"nx":28,"ny":28,"refTime":"2025-05-24T21:00:00:Z","depth":0,"parameterNumber":3,"parameterNumberName":"V-component_of_WINDS"},"data":[0,0,0,0,0,0,0,0,0,0,0,0,0,0,0,0,0,0,0,0,0,0,0,0,0,0,0,0,0,0,0,0,0,0,0,0,0,0,0,0,0,0,0,0,0,0,0,0,0,0,0,0,0,0,0,0,0,0,2.331,2.331,0,2.3248,2.3248,2.3247,2.325,2.3251,2.3252,2.3253,2.3183,2.318,2.3178,0,0,0,0,0,0,0,0,0,0,0,0,0,2.3427,2.3425,2.3311,2.331,2.3309,2.3248,2.3248,2.3247,2.325,2.3251,2.3252,2.3253,2.3184,2.3181,2.3178,0,0,0,0,0,0,0,0,0,0,0,0,0,2.3371,2.3424,2.3311,2.3303,2.3302,2.3249,2.3248,2.3246,2.325,2.3251,2.3252,2.3254,2.3185,2.3181,2.3177,2.3125,0,0,2.3165,2.3163,0,0,0,0,0,0,0,0,2.3374,2.3367,2.3305,2.3304,2.3302,2.3258,2.3263,2.3205,2.3249,2.3269,2.3253,2.3254,2.3207,2.3201,2.3186,2.3122,2.3119,2.3164,2.3162,2.316,2.3159,0,0,0,0,0,0,0,2.3378,2.337,2.3286,2.3304,2.3302,2.3301,2.3295,2.3252,2.3231,2.3268,2.3268,2.3261,2.3206,2.319,2.3184,2.3118,2.3164,2.3161,2.3158,2.3157,2.3008,2.3006,0,0,0,0,0,0,2.3385,2.3373,2.3288,2.3284,2.3343,2.3298,2.3291,2.3271,2.3231,2.3227,2.326,2.3261,2.3196,2.3189,2.3182,2.3119,2.316,2.3156,2.3154,2.3009,2.3007,2.3006,0,0,0,0,0,0,2.3387,2.3377,2.329,2.3328,2.3317,2.3295,2.3272,2.3269,2.3253,2.3225,2.3221,2.3247,2.3197,2.3188,2.314,2.3116,2.3155,2.3151,2.3011,2.3008,2.3006,2.2991,0,0,0,0,0,0,2.339,2.3378,2.3359,2.3328,2.3315,2.325,2.3271,2.3267,2.3247,2.3248,2.3213,2.3208,2.3197,2.3146,2.3136,2.3111,2.3148,2.3013,2.301,2.3007,2.2994,2.2989,2.2984,0,0,0,0,0,2.3395,2.3356,2.3358,2.3348,2.3292,2.3249,2.3241,2.3231,2.3245,2.3225,2.3207,2.3209,2.3121,2.3141,2.3129,2.3104,2.3014,2.3011,2.3007,2.2996,2.299,2.2985,0,0,0,0,0,0,2.3382,2.3351,2.3354,2.3304,2.3279,2.325,2.3224,2.3225,2.3194,2.3197,2.3184,2.3176,2.3128,2.3111,2.3134,2.3051,2.3069,2.3063,2.3064,2.3058,2.3053,2.3058,2.3144,0,0,0,0,0,2.3374,2.3344,2.3318,2.3276,2.3264,2.3246,2.3227,2.3222,2.3195,2.3184,2.3163,2.3135,2.3101,2.3078,2.3045,2.2992,2.2983,2.2968,2.2964,2.296,2.2955,2.2925,2.2918,2.2994,2.2994,2.2994,0,0,2.3356,2.3335,2.3317,2.3274,2.3254,2.3221,2.3237,2.3202,2.3177,2.3178,2.3132,2.3115,2.3083,2.3032,2.3009,2.3017,2.2932,2.2955,2.2953,2.2949,2.2921,2.2913,2.2907,2.2992,2.2992,2.2993,0,0,2.3306,2.3288,2.3252,2.3233,2.3204,2.3192,2.3184,2.3154,2.3144,2.3098,2.3098,2.3067,2.3009,2.2986,2.2967,2.2911,2.2911,2.29,2.2876,2.2847,2.2841,2.2835,2.2815,2.2808,2.2895,2.2895,2.2895,0,2.3287,2.324,2.3233,2.3198,2.3179,2.3181,2.3143,2.3124,2.3084,2.307,2.308,2.3008,2.2986,2.293,2.2916,2.2901,2.289,2.2904,2.2843,2.2837,2.2832,2.2812,2.2805,2.2894,2.2894,2.2894,2.2894,0,2.3218,2.3185,2.3159,2.3124,2.3102,2.3065,2.3051,2.3029,2.3026,2.3013,2.2966,2.2941,2.2903,2.2889,2.2885,2.2832,2.2838,2.2846,2.2863,2.2824,2.2805,2.2797,2.2892,2.2893,2.2893,2.2893,0,0,2.3157,2.312,2.3111,2.3095,2.3064,2.3037,2.3001,2.2966,2.2947,2.292,2.2889,2.284,2.2847,2.2825,2.2818,2.2793,2.275,2.2803,2.2802,2.2794,2.269,2.2685,2.2677,2.2751,2.2749,2.2748,2.2693,0,2.3105,2.3043,2.3036,2.298,2.2949,2.2951,2.2919,2.2896,2.2883,2.2854,2.2838,2.2804,2.2816,2.2803,2.2778,2.2761,2.2729,2.2764,2.272,2.2718,2.2728,2.2667,2.2661,2.261,2.2686,2.2684,2.2684,0,2.3035,2.3009,2.295,2.2924,2.2911,2.2883,2.2851,2.2823,2.2796,2.2789,2.2765,2.2762,2.2723,2.2743,2.2689,2.2713,2.2694,2.2683,2.2681,2.2676,2.2698,2.266,2.2594,2.2586,2.2672,2.2673,2.2674,0,2.2997,2.2947,2.2906,2.2892,2.286,2.284,2.2826,2.28,2.278,2.2752,2.2738,2.2704,2.2686,2.2659,2.2646,2.2662,2.2593,2.2612,2.2584,2.2585,2.2569,2.257,2.2499,2.2558,2.2558,2.2558,2.2558,0,2.2939,2.2903,2.2888,2.2863,2.2822,2.2814,2.2774,2.276,2.2737,2.2708,2.2707,2.2679,2.2664,2.2633,2.2623,2.2579,2.2571,2.2563,2.256,2.2563,2.2564,2.255,2.2553,2.2556,2.2556,2.2557,2.2557,0,2.2889,2.2878,2.2833,2.2808,2.28,2.2772,2.2749,2.2724,2.2712,2.2675,2.2665,2.2646,2.261,2.2595,2.255,2.2543,2.2494,2.2494,2.2503,2.2502,2.2476,2.2479,2.2393,2.2381,2.2448,2.2448,2.2447,0,2.2852,2.2825,2.2798,2.2779,2.2765,2.2734,2.2715,2.2705,2.2684,2.2652,2.2631,2.2596,2.2567,2.2509,2.249,2.2456,2.2455,2.2427,2.245,2.2453,2.2454,2.2456,2.2453,2.2423,2.2422,2.2422,2.2421,0,2.2788,2.2785,2.2757,2.2728,2.2705,2.2681,2.2657,2.2642,2.2629,2.2605,2.257,2.2548,2.2504,2.2468,2.2433,2.2416,2.2416,2.2415,2.2407,2.2408,2.2415,2.2411,2.2492,2.2416,2.2417,2.2417,2.2418,2.2418,2.2743,2.272,2.2697,2.2667,2.2649,2.2627,2.2603,2.2589,2.256,2.2525,2.252,2.2483,2.2456,2.241,2.2392,2.2361,2.2368,2.2356,2.2353,2.235,2.2348,2.2421,2.2354,2.2354,2.2354,2.2355,2.2355,0,2.2679,2.2666,2.2638,2.2606,2.2582,2.2587,2.2561,2.254,2.2508,2.2484,2.2457,2.2417,2.2383,2.2362,2.2327,2.2306,2.2305,2.2298,2.2299,2.2295,2.2344,2.2355,2.2299,2.2299,2.2299,2.2299,2.2299,2.2299,2.2643,2.2604,2.2597,2.2549,2.2534,2.2499,2.2484,2.2464,2.2445,2.2401,2.2374,2.2361,2.2338,2.2302,2.2271,2.2266,2.2253,2.2245,2.2239,2.2286,2.2291,2.2297,2.2307,2.2242,2.2242,2.2193,2.2192,2.2192]}]]